Find Starlink 36072

NORAD ID: 66856 Int'l Des: 2025-281 Owner: SPXS Country: US Constellation: starlink operational
LEOCIRCULAR

Current View

Loading 3D Globe...

About Starlink 36072

Description loading...

Upcoming Passes

Passes for default location (London). Set your location on the main map for personalized predictions.

Altitude History

Loading altitude history...

Two-Line Element Set

1 66856U 25281J 26146.05875699 .00022381 00000-0 82016-3 0 9993
2 66856 42.9981 266.9242 0001635 260.0484 100.0183 15.27587812 28016
Epoch: May 26, 2026 • Age: 18 hours

Current Status

Altitude 485.3 km
Velocity 7.63 km/s
Sub-Earth Point 35.40°N, 138.97°W
Launch Date Dec 2, 2025
Age 0.4 years
Type internet

Technical Details

Classification Payload
Mass 575.00 kg
Dry Mass 530.00 kg
Total Mass 575.00 kg
Length 0.30 m
Diameter 4.10 m
Span 29.00 m
Shape Box + pan
Manufacturer SPXS
Bus Type Starlink V2MO
Phase Status In Orbit
Owner/State SPXS/US

Most Searched